TimeMST,TemperatureF,Dew PointF,Humidity,Sea Level PressureIn,VisibilityMPH,Wind Direction,Wind SpeedMPH,Gust SpeedMPH,PrecipitationIn,Events,Conditions,WindDirDegrees,DateUTC
12:54 AM,19.9,10.0,65,30.26,10.0,SW,13.8,-,N/A,,Clear,230,2013-02-28 07:54:00
1:54 AM,19.9,10.0,65,30.25,10.0,WSW,13.8,-,N/A,,Clear,240,2013-02-28 08:54:00
2:54 AM,19.9,10.0,65,30.26,10.0,North,-9999.0,-,N/A,,Clear,0,2013-02-28 09:54:00
3:54 AM,19.9,10.0,65,30.25,10.0,SW,11.5,-,N/A,,Clear,220,2013-02-28 10:54:00
4:54 AM,21.0,12.0,68,30.24,10.0,Calm,Calm,-,N/A,,Clear,0,2013-02-28 11:54:00
5:54 AM,19.9,12.9,74,30.26,10.0,Calm,Calm,-,N/A,,Clear,0,2013-02-28 12:54:00
6:54 AM,21.0,12.9,71,30.26,10.0,Calm,Calm,-,N/A,,Overcast,0,2013-02-28 13:54:00
7:54 AM,26.1,18.0,71,30.26,10.0,WSW,9.2,-,N/A,,Overcast,240,2013-02-28 14:54:00
8:54 AM,28.9,21.0,72,30.25,10.0,Calm,Calm,-,N/A,,Overcast,0,2013-02-28 15:54:00
9:54 AM,30.9,23.0,72,30.25,10.0,Calm,Calm,-,N/A,,Overcast,0,2013-02-28 16:54:00
10:54 AM,33.1,23.0,66,30.24,10.0,SW,8.1,-,N/A,,Mostly Cloudy,230,2013-02-28 17:54:00
11:54 AM,37.0,21.9,54,30.23,10.0,WNW,16.1,24.2,N/A,,Overcast,290,2013-02-28 18:54:00
12:54 PM,37.9,21.9,53,30.23,10.0,WNW,15.0,23.0,N/A,,Overcast,300,2013-02-28 19:54:00
1:54 PM,37.9,21.9,53,30.23,10.0,WNW,15.0,23.0,N/A,,Mostly Cloudy,290,2013-02-28 20:54:00
2:54 PM,37.9,23.0,55,30.24,10.0,WNW,16.1,24.2,N/A,,Mostly Cloudy,290,2013-02-28 21:54:00
3:54 PM,39.9,23.0,51,30.24,10.0,WNW,18.4,27.6,N/A,,Partly Cloudy,290,2013-02-28 22:54:00
4:54 PM,39.0,23.0,53,30.27,10.0,North,4.6,-,N/A,,Mostly Cloudy,10,2013-02-28 23:54:00
5:54 PM,35.1,21.9,59,30.30,10.0,NNE,6.9,-,N/A,,Mostly Cloudy,20,2013-03-01 00:54:00
6:54 PM,33.1,19.0,56,30.31,10.0,Calm,Calm,-,N/A,,Clear,0,2013-03-01 01:54:00
7:54 PM,28.0,21.0,75,30.32,10.0,SSW,5.8,-,N/A,,Clear,200,2013-03-01 02:54:00
9:54 PM,24.1,19.0,81,30.31,10.0,ESE,4.6,-,N/A,,Clear,120,2013-03-01 04:54:00
11:54 PM,24.1,18.0,77,30.27,10.0,ESE,6.9,-,N/A,,Mostly Cloudy,120,2013-03-01 06:54:00